Truckee-Tahoe, CA

11:09 PM PST on December 14, 2017 (GMT -0800)
Truckee-Tahoe

Weather History for KTRK - November, 2011

Change the Weather History Date:

Friday, November 4, 2011

  Actual Average Record
Temperature  
Mean Temperature 22 °F -  
Max Temperature 30 °F 57 °F 74 °F (1976)
Min Temperature 12 °F 25 °F 3 °F (2003)
Degree Days  
Heating Degree Days 42    
Moisture  
Dew Point 18 °F    
Average Humidity 87    
Maximum Humidity 100    
Minimum Humidity 60    
Precipitation  
Precipitation 0.10 in - - ()
Snow  
Snow 0.00 in - - ()
Snow Depth 7.00 in    
Sea Level Pressure  
Sea Level Pressure 29.77 in    
Wind  
Wind Speed 3 mph (SSW)    
Max Wind Speed 13 mph    
Max Gust Speed -    
Visibility 9 miles    
Events Snow    
Averages and records for this station are not official NWS values.
T = Trace of Precipitation, MM = Missing Value Source: NWS Daily Summary

Daily Weather History Graph

Daily Weather History Graph

Search for Another Location

Airport or City:

Trip Planner

Search our weather history database for the weather conditions in past years. The results will help you decide how hot, cold, wet, or windy it might be!

Date:

Astronomy

Nov. 04, 2011 Rise Set
Actual Time 7:31 AM PDT 5:56 PM PDT
Civil Twilight 7:03 AM PDT 6:24 PM PDT
Nautical Twilight 6:31 AM PDT 6:55 PM PDT
Astronomical Twilight 6:00 AM PDT 7:27 PM PDT
Moon 2:48 PM PDT (11/4) 1:50 AM PDT (11/4)
Length of Visible Light 11h 20m
Length of Day
10h 24m
Waxing Gibbous, 70% of the Moon is Illuminated
Nov 4
Waxing Gibbous
Nov 10
Full
Nov 18
Last Quarter
Nov 24
New
Dec 2
First Quarter

Hourly Weather History & Observations

Time (PDT) Temp. Windchill Dew Point Humidity Pressure Visibility Wind Dir Wind Speed Gust Speed Precip Events Conditions
12:15 AM 26.6 °F - 26.6 °F 100% 29.67 in - Calm Calm - 0.02 in Snow Heavy Snow
12:35 AM 26.6 °F - 24.8 °F 93% 29.67 in - Calm Calm - 0.03 in Snow Heavy Snow
12:55 AM 26.6 °F 21.2 °F 24.8 °F 93% 29.68 in 0.5 mi WNW 4.6 mph - 0.05 in Snow Snow
1:35 AM 24.8 °F 17.9 °F 23.0 °F 93% 29.68 in 10.0 mi WNW 5.8 mph - 0.05 in Snow Light Snow
2:15 AM 24.8 °F 13.4 °F 19.4 °F 80% 29.68 in 5.0 mi West 12.7 mph - N/A Snow Light Snow
2:35 AM 24.8 °F 15.3 °F 19.4 °F 80% 29.68 in 10.0 mi West 9.2 mph - N/A Snow Light Snow
2:55 AM 21.2 °F 16.4 °F 17.6 °F 86% 29.68 in 10.0 mi East 3.5 mph - N/A   Clear
3:15 AM 21.2 °F 13.6 °F 19.4 °F 93% 29.69 in 10.0 mi NE 5.8 mph - N/A   Scattered Clouds
3:35 AM 23.0 °F 15.8 °F 19.4 °F 86% 29.70 in 5.0 mi North 5.8 mph - N/A Snow Light Snow
3:55 AM 23.0 °F 18.4 °F 19.4 °F 86% 29.70 in 10.0 mi South 3.5 mph - N/A Snow Light Snow
4:15 AM 23.0 °F 18.4 °F 19.4 °F 86% 29.71 in 10.0 mi SW 3.5 mph - N/A   Overcast
4:35 AM 23.0 °F 18.4 °F 19.4 °F 86% 29.71 in 10.0 mi WSW 3.5 mph - N/A Snow Light Snow
4:55 AM 23.0 °F - 19.4 °F 86% 29.71 in 10.0 mi Calm Calm - N/A   Overcast
5:15 AM 23.0 °F - 19.4 °F 86% 29.71 in 10.0 mi Calm Calm - N/A   Scattered Clouds
5:35 AM 19.4 °F - 17.6 °F 93% 29.71 in 10.0 mi Calm Calm - N/A   Mostly Cloudy
5:55 AM 17.6 °F 9.3 °F 17.6 °F 100% 29.71 in 10.0 mi SW 5.8 mph - N/A   Mostly Cloudy
6:15 AM 19.4 °F - 17.6 °F 93% 29.71 in 10.0 mi Calm Calm - N/A   Mostly Cloudy
6:35 AM 17.6 °F 10.7 °F 15.8 °F 93% 29.71 in 10.0 mi SW 4.6 mph - N/A   Scattered Clouds
6:50 AM 17.6 °F 10.7 °F 17.6 °F 100% 29.71 in 10.0 mi SSW 4.6 mph - N/A   Scattered Clouds
7:50 AM 15.8 °F 10.2 °F 14.0 °F 93% 29.73 in 10.0 mi South 3.5 mph - N/A   Scattered Clouds
8:55 AM 15.8 °F 10.2 °F 14.0 °F 93% 29.77 in 10.0 mi ENE 3.5 mph - N/A   Overcast
9:55 AM 19.4 °F - 17.6 °F 93% 29.78 in 5.0 mi Calm Calm - N/A Snow Light Snow
10:55 AM 23.0 °F - 21.2 °F 93% 29.80 in 8.0 mi Calm Calm - N/A   Mostly Cloudy
11:45 AM 26.6 °F 22.6 °F 21.2 °F 80% 29.79 in 9.0 mi SSE 3.5 mph - N/A   Mostly Cloudy
12:45 PM 28.4 °F - 17.6 °F 64% 29.70 in 10.0 mi Calm Calm - N/A   Mostly Cloudy
1:50 PM 30.2 °F 25.4 °F 17.6 °F 60% 29.78 in 10.0 mi North 4.6 mph - N/A   Mostly Cloudy
2:55 PM 30.2 °F 23.4 °F 17.6 °F 60% 29.77 in 10.0 mi NE 6.9 mph - N/A   Mostly Cloudy
3:45 PM 30.2 °F 21.9 °F 19.4 °F 64% 29.78 in 10.0 mi North 9.2 mph - N/A   Mostly Cloudy
4:45 PM 28.4 °F 19.7 °F 19.4 °F 69% 29.80 in 10.0 mi North 9.2 mph - N/A   Mostly Cloudy
5:55 PM 26.6 °F - 19.4 °F 74% 29.81 in 10.0 mi Calm Calm - N/A   Partly Cloudy
6:15 PM 26.6 °F - 19.4 °F 74% 29.81 in 10.0 mi Calm Calm - N/A   Clear
6:35 PM 24.8 °F - 19.4 °F 80% 29.82 in 10.0 mi Calm Calm - N/A   Clear
6:55 PM 24.8 °F 20.5 °F 19.4 °F 80% 29.82 in 10.0 mi NNW 3.5 mph - N/A   Clear
7:15 PM 23.0 °F - 19.4 °F 86% 29.83 in 10.0 mi Calm Calm - N/A   Clear
7:35 PM 21.2 °F 14.9 °F 17.6 °F 86% 29.83 in 10.0 mi North 4.6 mph - N/A   Clear
7:55 PM 19.4 °F - 17.6 °F 93% 29.84 in 10.0 mi Calm Calm - N/A   Clear
8:15 PM 19.4 °F 12.8 °F 17.6 °F 93% 29.84 in 10.0 mi SSE 4.6 mph - N/A   Clear
8:35 PM 17.6 °F 12.3 °F 15.8 °F 93% 29.84 in 10.0 mi SSE 3.5 mph - N/A   Scattered Clouds
8:55 PM 17.6 °F - 15.8 °F 93% 29.85 in 10.0 mi Calm Calm - N/A   Partly Cloudy
9:15 PM 17.6 °F - 17.6 °F 100% 29.85 in 10.0 mi Calm Calm - N/A   Partly Cloudy
9:35 PM 17.6 °F - 15.8 °F 93% 29.85 in 10.0 mi Calm Calm - N/A   Mostly Cloudy
9:55 PM 17.6 °F 12.3 °F 14.0 °F 86% 29.85 in 10.0 mi SE 3.5 mph - N/A   Scattered Clouds
10:15 PM 15.8 °F 10.2 °F 14.0 °F 93% 29.85 in 9.0 mi SSE 3.5 mph - N/A   Clear
10:55 PM 15.8 °F 10.2 °F 14.0 °F 93% 29.85 in 10.0 mi SSE 3.5 mph - N/A   Scattered Clouds
11:15 PM 15.8 °F - 14.0 °F 93% 29.85 in 10.0 mi Calm Calm - N/A   Partly Cloudy
11:35 PM 15.8 °F - 14.0 °F 93% 29.84 in 3.0 mi Calm Calm - N/A   Clear
11:55 PM 12.2 °F - 10.4 °F 92% 29.85 in 8.0 mi Calm Calm - N/A   Clear